Weather History for EBLB - February, 2013

Change the Weather History Date:

Friday, February 1, 2013

  Actual Average Record
Temperature  
Mean Temperature 36 °F -  
Max Temperature 39 °F - - ()
Min Temperature 32 °F - - ()
Degree Days  
Heating Degree Days 30    
Moisture  
Dew Point 36 °F    
Average Humidity 94    
Maximum Humidity 100    
Minimum Humidity 78    
Precipitation  
Precipitation 0.47 in - - ()
Sea Level Pressure  
Sea Level Pressure 29.54 in    
Wind  
Wind Speed 11 mph ()    
Max Wind Speed 18 mph    
Max Gust Speed 30 mph    
Visibility 3.5 miles    
Events Rain , Snow    
T = Trace of Precipitation, MM = Missing Value Source: Averaged Metar Reports

Daily Weather History Graph

Daily Weather History Graph

Search for Another Location

Airport or City:

Trip Planner

Search our weather history database for the weather conditions in past years. The results will help you decide how hot, cold, wet, or windy it might be!

Date:

Astronomy

Feb. 01, 2013 Rise Set
Actual Time 8:10 AM CET 5:28 PM CET
Civil Twilight 7:34 AM CET 6:03 PM CET
Nautical Twilight 6:55 AM CET 6:42 PM CET
Astronomical Twilight 6:17 AM CET 7:20 PM CET
Moon No Moon Rise 9:54 AM CET (2/1)
Length of Visible Light 10h 28m
Length of Day
9h 18m
Waning Gibbous, 73% of the Moon is Illuminated
Feb 1
Waning Gibbous
Feb 3
Last Quarter
Feb 10
New
Feb 17
First Quarter
Feb 25
Full

Hourly Weather History & Observations

Time (CET) Temp. Windchill Dew Point Humidity Pressure Visibility Wind Dir Wind Speed Gust Speed Precip Events Conditions
12:25 AM 39.2 °F 30.2 °F 33.8 °F 81% 29.92 in 6.2 mi West 17.3 mph - N/A   Mostly Cloudy
1:00 AM 39 °F - 35 °F 78% 29.96 in 7 mi West 15.7 mph - -   Scattered Clouds
1:25 AM 39.2 °F 30.8 °F 35.6 °F 87% 29.89 in 6.2 mi WSW 15.0 mph - N/A   Mostly Cloudy
2:25 AM 39.2 °F 30.8 °F 33.8 °F 81% 29.89 in 6.2 mi West 15.0 mph - N/A   Mostly Cloudy
3:25 AM 39.2 °F 30.8 °F 35.6 °F 87% 29.86 in 6.2 mi WSW 15.0 mph - N/A   Mostly Cloudy
3:41 AM 39.2 °F 31.6 °F 35.6 °F 87% 29.86 in 6.2 mi WSW 12.7 mph - N/A   Mostly Cloudy
4:00 AM 39 °F - 36 °F 83% 29.91 in 7 mi WSW 13.4 mph - -   Scattered Clouds
4:28 AM 39.2 °F 31.2 °F 35.6 °F 87% 29.83 in 6.2 mi WSW 13.8 mph - N/A   Mostly Cloudy
4:36 AM 39.2 °F 31.6 °F 35.6 °F 87% 29.83 in 6.2 mi WSW 12.7 mph - N/A   Mostly Cloudy
5:25 AM 39.2 °F 31.6 °F 35.6 °F 87% 29.80 in 6.2 mi WSW 12.7 mph - N/A   Mostly Cloudy
5:41 AM 39.2 °F 32.0 °F 35.6 °F 87% 29.80 in 6.2 mi WSW 11.5 mph - N/A   Mostly Cloudy
6:25 AM 39.2 °F 31.6 °F 35.6 °F 87% 29.80 in 5.0 mi SW 12.7 mph - N/A   Mostly Cloudy
7:00 AM 38 °F - 37 °F 93% 29.83 in 3 mi WSW 11.2 mph - - Rain Rain
7:11 AM 37.4 °F 28.9 °F 35.6 °F 93% 29.77 in 6.2 mi West 13.8 mph - N/A   Mostly Cloudy
7:25 AM 37.4 °F 28.9 °F 33.8 °F 87% 29.77 in 5.0 mi WSW 13.8 mph - N/A   Mostly Cloudy
8:11 AM 35.6 °F 29.9 °F 33.8 °F 93% 29.74 in 5.0 mi SW 6.9 mph - N/A Rain Rain
8:25 AM 33.8 °F 27.7 °F 32.0 °F 93% 29.71 in 3.1 mi SW 6.9 mph - N/A Rain Rain
8:41 AM 33.8 °F 28.6 °F 32.0 °F 93% 29.71 in 1.6 mi SW 5.8 mph - N/A Snow Snow
9:25 AM 32.0 °F 27.5 °F 32.0 °F 100% 29.68 in 1.1 mi SSW 4.6 mph - N/A Snow Snow
10:00 AM 33 °F - 32 °F 92% 29.74 in 1 mi 4.5 mph - - Snow Snow
10:25 AM 33.8 °F 27.7 °F 32.0 °F 93% 29.65 in 1.2 mi South 6.9 mph - N/A Snow Snow
10:36 AM 33.8 °F 27.7 °F 32.0 °F 93% 29.62 in 1.1 mi South 6.9 mph - N/A Snow Snow
11:25 AM 33.8 °F 27.0 °F 32.0 °F 93% 29.59 in 0.9 mi South 8.1 mph - N/A Snow Snow
12:25 PM 33.8 °F 27.0 °F 33.8 °F 100% 29.53 in 3.7 mi SSW 8.1 mph - N/A Rain Rain
1:00 PM 35 °F - 34 °F 93% 29.58 in 3 mi SSW 8.9 mph - - Rain Rain
1:25 PM 35.6 °F 29.9 °F 35.6 °F 100% 29.50 in - SSW 6.9 mph - N/A Rain Rain
2:25 PM 37.4 °F 32.1 °F 35.6 °F 93% 29.44 in 3.7 mi SSW 6.9 mph - N/A Rain Rain
3:25 PM 37.4 °F 30.8 °F 37.4 °F 100% 29.39 in 6.2 mi SSW 9.2 mph - N/A Rain Rain
3:56 PM 39.2 °F 33.0 °F 37.4 °F 93% 29.36 in 4.3 mi SW 9.2 mph - N/A Rain Rain
4:00 PM 38 °F - 37 °F 97% 29.42 in 5 mi SW 8.9 mph - - Rain Rain
4:25 PM 39.2 °F 33.0 °F 37.4 °F 93% 29.36 in 4.3 mi SW 9.2 mph - N/A Rain Rain
5:25 PM 39.2 °F 33.0 °F 37.4 °F 93% 29.30 in 5.6 mi SW 9.2 mph - N/A   Overcast
6:11 PM 39.2 °F 33.6 °F 37.4 °F 93% 29.30 in 6.2 mi WSW 8.1 mph - N/A   Overcast
6:25 PM 39.2 °F 33.6 °F 39.2 °F 100% 29.30 in - WSW 8.1 mph - N/A   Overcast
6:28 PM 39.2 °F 33.6 °F 39.2 °F 100% 29.30 in 1.2 mi WSW 8.1 mph - N/A   Overcast
6:34 PM 39.2 °F 33.6 °F 39.2 °F 100% 29.30 in 1.3 mi WSW 8.1 mph - N/A   Overcast
7:00 PM 39 °F - 38 °F 97% 29.33 in 2 mi SW 8.9 mph - - Rain Light Rain Showers
7:11 PM 39.2 °F 33.6 °F 39.2 °F 100% 29.27 in 1.3 mi WSW 8.1 mph - N/A   Unknown
7:17 PM 39.2 °F 33.0 °F 39.2 °F 100% 29.27 in - WSW 9.2 mph - N/A   Mostly Cloudy
7:25 PM 39.2 °F 33.0 °F 39.2 °F 100% 29.27 in - WSW 9.2 mph - N/A   Mostly Cloudy
7:36 PM 39.2 °F 34.2 °F 39.2 °F 100% 29.27 in - WSW 6.9 mph - N/A   Mostly Cloudy
7:51 PM 39.2 °F 32.5 °F 39.2 °F 100% 29.27 in 3.7 mi West 10.4 mph 21.9 mph N/A   Mostly Cloudy
8:25 PM 37.4 °F 27.8 °F 37.4 °F 100% 29.27 in 2.8 mi WNW 17.3 mph - N/A   Mostly Cloudy
8:28 PM 37.4 °F 27.5 °F 35.6 °F 93% 29.27 in 1.8 mi WNW 18.4 mph 29.9 mph N/A   Mostly Cloudy
8:34 PM 37.4 °F 27.5 °F 37.4 °F 100% 29.27 in 0.3 mi WNW 18.4 mph 29.9 mph N/A   Mostly Cloudy
9:03 PM 35.6 °F 25.2 °F 35.6 °F 100% 29.30 in 0.7 mi NW 18.4 mph - N/A   Mostly Cloudy
9:16 PM 35.6 °F 26.2 °F 35.6 °F 100% 29.30 in 1.7 mi NW 15.0 mph 26.5 mph N/A   Mostly Cloudy
9:25 PM 35.6 °F 27.5 °F 33.8 °F 93% 29.30 in 1.0 mi NW 11.5 mph - N/A   Overcast
10:00 PM 34 °F - 34 °F 98% 29.38 in 0 mi NW 15.7 mph - - Rain Heavy Drizzle
10:25 PM 33.8 °F 23.9 °F 32.0 °F 93% 29.33 in 0.2 mi NW 15.0 mph - N/A   Mostly Cloudy
11:25 PM 32.0 °F 22.1 °F 32.0 °F 100% 29.33 in 0.1 mi NNW 13.8 mph - N/A   Mostly Cloudy
11:43 PM 32.0 °F 22.1 °F 32.0 °F 100% 29.36 in 0.6 mi NNW 13.8 mph 25.3 mph N/A   Mostly Cloudy